Tracking 28091 objects as of 30-Sep-2023
HD Live streaming from Space Station
objects crossing your sky now

NOAA 16 DEB

Track NOAA 16 DEB now!
10-day predictions


NORAD ID: 41159
Int'l Code: 2000-055CS
Perigee: 808.3 km
Apogee: 842.2 km
Inclination: 98.7 °
Period: 101.3 minutes
Semi major axis: 7196 km
RCS: Unknown
Launch date: September 21, 2000
Source: United States (US)
Launch site: AIR FORCE WESTERN TEST RANGE (AFWTR)

Note: This is SATELLITE DEBRIS
Your satellite tracking list
Your tracking list is empty




NASA's NSSDC Master Catalog

Two Line Element Set (TLE):
1 41159U 00055CS  23270.98229941  .00004655  00000-0  21136-2 0  9993
2 41159  98.6755 342.1211 0023541 203.2074 156.8042 14.22147593405057
Source of the keplerian elements: AFSPC